TimeCDT,TemperatureF,Dew PointF,Humidity,Sea Level PressureIn,VisibilityMPH,Wind Direction,Wind SpeedMPH,Gust SpeedMPH,PrecipitationIn,Events,Conditions,WindDirDegrees,DateUTC
12:13 AM,44.6,37.4,76,29.84,10.0,WNW,3.5,-,N/A,,Clear,300,2013-05-16 05:13:00
12:32 AM,46.4,37.4,71,29.85,10.0,Calm,Calm,-,N/A,,Clear,0,2013-05-16 05:32:00
12:53 AM,42.8,35.6,76,29.86,10.0,Calm,Calm,-,N/A,,Clear,0,2013-05-16 05:53:00
1:13 AM,41.0,35.6,81,29.86,10.0,Calm,Calm,-,N/A,,Clear,0,2013-05-16 06:13:00
1:33 AM,41.0,35.6,81,29.87,10.0,Calm,Calm,-,N/A,,Clear,0,2013-05-16 06:33:00
1:53 AM,42.8,35.6,76,29.87,10.0,Calm,Calm,-,N/A,,Clear,0,2013-05-16 06:53:00
2:12 AM,42.8,35.6,76,29.88,10.0,Calm,Calm,-,N/A,,Clear,0,2013-05-16 07:12:00
2:33 AM,39.2,33.8,81,29.89,10.0,Calm,Calm,-,N/A,,Clear,0,2013-05-16 07:33:00
2:53 AM,37.4,35.6,93,29.89,10.0,Calm,Calm,-,N/A,,Clear,0,2013-05-16 07:53:00
3:12 AM,37.4,35.6,93,29.90,10.0,Calm,Calm,-,N/A,,Clear,0,2013-05-16 08:12:00
3:33 AM,35.6,33.8,93,29.90,10.0,Calm,Calm,-,N/A,,Clear,0,2013-05-16 08:33:00
3:53 AM,35.6,32.0,87,29.91,10.0,Calm,Calm,-,N/A,,Clear,0,2013-05-16 08:53:00
4:12 AM,35.6,33.8,93,29.91,10.0,Calm,Calm,-,N/A,,Clear,0,2013-05-16 09:12:00
4:33 AM,33.8,32.0,93,29.92,10.0,Calm,Calm,-,N/A,,Clear,0,2013-05-16 09:33:00
4:53 AM,33.8,30.2,87,29.93,10.0,Calm,Calm,-,N/A,,Clear,0,2013-05-16 09:53:00
5:12 AM,32.0,30.2,93,29.93,10.0,Calm,Calm,-,N/A,,Clear,0,2013-05-16 10:12:00
5:33 AM,32.0,30.2,93,29.94,10.0,Calm,Calm,-,N/A,,Clear,0,2013-05-16 10:33:00
5:53 AM,30.2,30.2,100,29.94,10.0,Calm,Calm,-,N/A,,Clear,0,2013-05-16 10:53:00
6:12 AM,32.0,30.2,93,29.95,10.0,Calm,Calm,-,N/A,,Clear,0,2013-05-16 11:12:00
6:33 AM,33.8,32.0,93,29.96,10.0,Calm,Calm,-,N/A,,Clear,0,2013-05-16 11:33:00
6:53 AM,39.2,35.6,87,29.97,10.0,Calm,Calm,-,N/A,,Clear,0,2013-05-16 11:53:00
7:12 AM,42.8,35.6,76,29.97,10.0,Calm,Calm,-,N/A,,Clear,0,2013-05-16 12:12:00
7:33 AM,46.4,35.6,66,29.98,10.0,Calm,Calm,-,N/A,,Clear,0,2013-05-16 12:33:00
7:53 AM,48.2,35.6,62,29.99,10.0,NE,3.5,-,N/A,,Clear,40,2013-05-16 12:53:00
8:12 AM,50.0,35.6,58,29.99,10.0,Calm,Calm,-,N/A,,Clear,0,2013-05-16 13:12:00
8:33 AM,51.8,35.6,54,29.99,10.0,NE,4.6,-,N/A,,Clear,50,2013-05-16 13:33:00
8:53 AM,53.6,35.6,51,29.99,10.0,North,4.6,-,N/A,,Clear,10,2013-05-16 13:53:00
9:12 AM,53.6,33.8,47,30.01,10.0,NE,5.8,-,N/A,,Clear,50,2013-05-16 14:12:00
9:33 AM,53.6,33.8,47,30.01,10.0,NNE,3.5,-,N/A,,Clear,30,2013-05-16 14:33:00
9:53 AM,55.4,33.8,44,30.00,10.0,NNE,5.8,-,N/A,,Clear,30,2013-05-16 14:53:00
10:12 AM,55.4,30.2,38,30.00,10.0,NNE,8.1,-,N/A,,Clear,30,2013-05-16 15:12:00
10:33 AM,57.2,30.2,36,30.00,10.0,NNE,4.6,-,N/A,,Clear,30,2013-05-16 15:33:00
10:53 AM,57.2,32.0,38,30.01,10.0,NE,8.1,-,N/A,,Clear,50,2013-05-16 15:53:00
11:12 AM,57.2,30.2,36,30.01,10.0,NE,5.8,-,N/A,,Clear,50,2013-05-16 16:12:00
11:33 AM,59.0,30.2,34,30.01,10.0,NNE,4.6,-,N/A,,Clear,30,2013-05-16 16:33:00
11:53 AM,59.0,30.2,34,30.01,10.0,NNE,3.5,-,N/A,,Clear,30,2013-05-16 16:53:00
12:13 PM,60.8,30.2,31,30.00,10.0,ENE,6.9,-,N/A,,Clear,60,2013-05-16 17:13:00
12:30 PM,60.8,28.4,29,30.00,10.0,NNE,3.5,-,N/A,,Clear,30,2013-05-16 17:30:00
12:53 PM,62.6,28.4,27,30.00,10.0,NNE,6.9,-,N/A,,Clear,30,2013-05-16 17:53:00
1:12 PM,62.6,26.6,26,29.99,10.0,North,4.6,-,N/A,,Clear,10,2013-05-16 18:12:00
1:33 PM,62.6,28.4,27,29.99,10.0,NNW,4.6,-,N/A,,Clear,340,2013-05-16 18:33:00
1:53 PM,64.4,28.4,26,29.99,10.0,North,4.6,-,N/A,,Clear,360,2013-05-16 18:53:00
2:12 PM,64.4,28.4,26,29.98,10.0,North,4.6,-,N/A,,Clear,360,2013-05-16 19:12:00
2:33 PM,62.6,28.4,27,29.99,10.0,Calm,Calm,-,N/A,,Clear,0,2013-05-16 19:33:00
2:53 PM,64.4,24.8,22,29.98,10.0,Calm,Calm,-,N/A,,Clear,0,2013-05-16 19:53:00
3:12 PM,66.2,26.6,23,29.99,10.0,North,4.6,-,N/A,,Clear,10,2013-05-16 20:12:00
3:33 PM,66.2,24.8,21,29.98,10.0,ESE,3.5,-,N/A,,Clear,120,2013-05-16 20:33:00
3:53 PM,66.2,26.6,23,29.99,10.0,NNE,6.9,-,N/A,,Clear,30,2013-05-16 20:53:00
4:12 PM,66.2,26.6,23,29.99,10.0,SE,3.5,-,N/A,,Clear,140,2013-05-16 21:12:00
4:33 PM,68.0,26.6,21,29.98,10.0,NE,3.5,-,N/A,,Clear,50,2013-05-16 21:33:00
4:53 PM,69.8,26.6,20,29.98,10.0,East,6.9,-,N/A,,Clear,80,2013-05-16 21:53:00
5:12 PM,66.2,26.6,23,29.98,7.0,East,4.6,-,N/A,,Clear,100,2013-05-16 22:12:00
5:33 PM,68.0,28.4,23,29.98,10.0,NE,5.8,-,N/A,,Clear,40,2013-05-16 22:33:00
5:53 PM,66.2,28.4,24,29.99,10.0,NNE,6.9,-,N/A,,Clear,30,2013-05-16 22:53:00
6:12 PM,66.2,28.4,24,29.99,10.0,NNE,8.1,-,N/A,,Clear,30,2013-05-16 23:12:00
6:33 PM,66.2,28.4,24,29.99,10.0,NE,5.8,-,N/A,,Clear,40,2013-05-16 23:33:00
6:53 PM,64.4,28.4,26,30.00,10.0,NE,4.6,-,N/A,,Clear,40,2013-05-16 23:53:00
7:12 PM,64.4,28.4,26,30.00,10.0,Calm,Calm,-,N/A,,Clear,0,2013-05-17 00:12:00
7:33 PM,64.4,28.4,26,30.00,10.0,NE,3.5,-,N/A,,Clear,40,2013-05-17 00:33:00
7:53 PM,64.4,28.4,26,30.01,10.0,Calm,Calm,-,N/A,,Clear,0,2013-05-17 00:53:00
8:12 PM,62.6,30.2,30,30.01,10.0,East,3.5,-,N/A,,Clear,80,2013-05-17 01:12:00
8:33 PM,60.8,30.2,31,30.01,10.0,ESE,4.6,-,N/A,,Clear,120,2013-05-17 01:33:00
8:53 PM,57.2,33.8,41,30.01,10.0,SSE,4.6,-,N/A,,Clear,160,2013-05-17 01:53:00
9:12 PM,55.4,33.8,44,30.02,10.0,Calm,Calm,-,N/A,,Clear,0,2013-05-17 02:12:00
9:33 PM,55.4,33.8,44,30.02,10.0,Calm,Calm,-,N/A,,Clear,0,2013-05-17 02:33:00
9:53 PM,53.6,33.8,47,30.02,10.0,SE,3.5,-,N/A,,Clear,130,2013-05-17 02:53:00
10:13 PM,51.8,33.8,50,30.03,10.0,Calm,Calm,-,N/A,,Clear,0,2013-05-17 03:13:00
10:33 PM,51.8,33.8,50,30.04,10.0,ESE,4.6,-,N/A,,Clear,120,2013-05-17 03:33:00
10:52 PM,51.8,33.8,50,30.03,10.0,SE,4.6,-,N/A,,Clear,130,2013-05-17 03:52:00
11:13 PM,50.0,33.8,54,30.03,10.0,ESE,4.6,-,N/A,,Clear,120,2013-05-17 04:13:00
11:33 PM,48.2,33.8,58,30.04,10.0,SE,4.6,-,N/A,,Clear,130,2013-05-17 04:33:00
11:52 PM,48.2,32.0,54,30.04,10.0,SE,6.9,-,N/A,,Clear,130,2013-05-17 04:52:00